Tracking 29487 objects as of 11-Sep-2024
HD Live streaming from Space Station
objects crossing your sky now

MIMAN

Track MIMAN now!
10-day predictions
MIMAN is classified as:


NORAD ID: 52900
Int'l Code: 2022-065G
Perigee: 695.4 km
Apogee: 704.9 km
Inclination: 98.1 °
Period: 98.6 minutes
Semi major axis: 7071 km
RCS: Unknown
Launch date: June 21, 2022
Source: South Korea (SKOR)
Launch site: Naro Space Center, South Korea (NSC)

Uplink (MHz):
Downlink (MHz): 436.500
Beacon (MHz):
Mode: 2k4/4k8* FSK
Call sign:
Status: Active

Your satellite tracking list
Your tracking list is empty




NASA's NSSDC Master Catalog

Two Line Element Set (TLE):
1 52900U 22065G   24254.93577320  .00003298  00000-0  69581-3 0  9998
2 52900  98.1350  33.8880 0006775 235.6868 124.3691 14.60049830116365
Source of the keplerian elements: AFSPC